National Weather Service Hourly Weather Roundup
NOAA NWS Hourly Roundups by Site
NOAA NWS Hourly Roundups by Site
Regional Weather Roundup for Sacramento, CA

To Select Another Site Choose from List

Select Site:  

000
ASUS46 KSTO 192015
RWRCA

NORTHERN AND CENTRAL CA REGIONAL WEATHER ROUNDUP
NATIONAL WEATHER SERVICE SACRAMENTO CA
1200 PM PST MON NOV 19 2018

NOTE: FAIR INDICATES FEW OR NO CLOUDS BELOW 12,000 FEET WITH NO
SIGNIFICANT WEATHER AND/OR OBSTRUCTIONS TO VISIBILITY.

CAZ001-003-192100-
NORTHWEST AREA

CITY           SKY/WX    TMP DP  RH WIND       PRES   REMARKS
CRESCENT CITY  SUNNY     50  46  86 N8        30.04F
UKIAH          MOSUNNY   59  28  30 CALM      30.04F HAZE
$$

CAZ006-505>513-192100-
BAY AREA

CITY           SKY/WX    TMP DP  RH WIND       PRES   REMARKS
SANTA ROSA     SUNNY     59  36  42 S5        30.03F HAZE
SAN RAFAEL     N/A       57  MM  MM MISG
NAPA           SUNNY     64  32  30 E13       30.04F HAZE
CONCORD        CLOUDY    65  30  27 NE6       30.06F HAZE
OAKLAND CITY   N/A       59  MM  MM MISG
OAKLAND        PTSUNNY   59  42  53 S3        30.05F HAZE
SAN FRAN CITY  N/A       63  MM  40 MISG
SAN FRAN ARPT  PTSUNNY   61  46  57 CALM      30.03F HAZE
LIVERMORE      SUNNY     65  29  25 NE8       30.04F HAZE
HAYWARD        SUNNY     61  43  51 CALM      30.04F HAZE
REDWOOD CITY   N/A       61  MM  45 MISG
MOFFETT ARPT   MOSUNNY   63  45  51 N5        30.04F SMOKE
SAN JOSE ARPT  CLOUDY    63  40  42 CALM      30.04F HAZE
$$
CAZ034-037-514>518-192100-
CENTRAL COAST

CITY           SKY/WX    TMP DP  RH WIND       PRES   REMARKS
WATSONVILLE    PTSUNNY   64  40  41 CALM      30.03F HAZE
SALINAS        CLOUDY    63  35  35 SE10      30.01F HAZE
MONTEREY       CLOUDY    64  43  46 NW8       30.03S
SAN LUIS OBISP CLOUDY    66  45  46 NE3       30.03F
SANTA MARIA    CLOUDY    68  53  58 CALM      30.02F
$$
CAZ015-016-192100-
NORTHERN SACRAMENTO VALLEY

CITY           SKY/WX    TMP DP  RH WIND       PRES   REMARKS
REDDING        SUNNY     68  31  25 VRB3      30.04F
RED BLUFF      SUNNY     66  28  24 N7        30.06F
OROVILLE       CLOUDY    56  35  45 CALM      30.07F HAZE
$$
CAZ016>018-192100-
SOUTHERN SACRAMENTO VALLEY

CITY           SKY/WX    TMP DP  RH WIND       PRES   REMARKS
AUBURN         SUNNY     68  23  18 SW5       30.07F
BEALE AFB      SUNNY     60  31  33 CALM      30.05F SMOKE
LINCOLN        FAIR      57  32  38 CALM      30.06F
MARYSVILLE     CLOUDY    60  31  33 NW3       30.07F HAZE
SAC INTL ARPT  CLOUDY    56  34  43 W3        30.07F HAZE
MATHER AIRPORT NOT AVBL
DOWNTOWN SAC   N/A       62  MM  MM MISG
SAC EXEC ARPT  MOSUNNY   60  34  37 CALM      30.07F SMOKE
VACAVILLE      CLOUDY    66  29  24 N10       30.07F HAZE
TRAVIS AFB     SUNNY     64  30  27 NE13      30.06F HAZE
$$
CAZ019>021-192100-
SAN JOAQUIN VALLEY

CITY           SKY/WX    TMP DP  RH WIND       PRES   REMARKS
STOCKTON       CLOUDY    60  36  40 CALM      30.06F HAZE
MODESTO        SUNNY     62  38  40 CALM      30.06F HAZE
MERCED         MOSUNNY   62  38  40 VRB3      30.05F HAZE
LEMOORE        PTSUNNY   59  39  47 N3        30.07F HAZE
FRESNO         PTSUNNY   63  34  33 CALM      30.07F HAZE
HANFORD        PTSUNNY   61  38  42 NW5       30.07F HAZE
PORTERVILLE      N/A     64  37  36 VRB3      30.06F HAZE
BAKERSFIELD    CLOUDY    62  38  40 W7        30.04F HAZE
$$
CAZ011-012-071-192100-
NORTHERN MOUNTAINS

CITY           SKY/WX    TMP DP  RH WIND       PRES   REMARKS
YREKA          SUNNY     49  28  44 VRB3      30.17F
MOUNT SHASTA   SUNNY     55  25  31 CALM      30.12F
ALTURAS        SUNNY     51  21  30 CALM      30.18F
$$
CAZ011-012-071-192100-
SIERRA NEVADA MTNS

CITY           SKY/WX    TMP DP  RH WIND       PRES   REMARKS
BLUE CANYON    MOSUNNY   55  14  19 W5        30.17F
TRUCKEE        MOSUNNY   43  19  39 CALM      30.21F
TAHOE VLY ARPT MOSUNNY   48  20  32 CALM      30.19F
MAMMOTH LAKES  FAIR      46   9  21 SE5       30.23F
$$


 

View Past Reports for Sacramento, CA.

Products Courtesy of NOAA-NWS
NWS Information Parsing Script by Ken True at Saratoga Weather - Script by SE Lincoln Weather.

powered by Cumulus v1.9.3 (1059)
Ambient Weather VWS v14.00
Top Contact Website Map Copyright © 2007 - 2018 Foresthillweather.com Never base important decisions on this or any weather information obtained from the Internet